Location: Berkeley
(37.8716°N, 122.2727°W)
Time: 11:48:03
(UTC-08:00)

ISS - Visible Passes

Search period start: 12 December 2018 00:00
Search period end: 22 December 2018 00:00
Orbit: 401 x 408 km, 51.6° (Epoch: 13 December)

Date Brightness Start Highest point End Pass type
(mag) Time Alt. Az. Time Alt. Az. Time Alt. Az.
12 Dec -3.8 17:40:20 10° NW 17:43:34 60° NE 17:46:47 10° ESE visible
12 Dec -0.6 19:18:22 10° WSW 19:19:40 12° SW 19:20:09 12° SW visible
13 Dec -1.4 18:25:01 10° WNW 18:27:42 24° SW 18:30:22 10° S visible
14 Dec -2.8 17:32:29 10° WNW 17:35:39 49° SW 17:38:47 10° SSE visible
16 Dec -0.7 17:25:10 10° W 17:27:30 18° SW 17:29:51 10° S visible
21 Dec -0.7 06:34:56 10° S 06:37:21 19° SE 06:39:48 10° E visible
